DW8032 Weather Reports


Display with metric or nautical units.
time (UTC)temp
F
wind
direction
speed
MPH
gust
MPH
rain 1hr
in
rain 24hr
in
rain mn
in
humidity
%
barometer
mb
20260906040002 73 280 0.0 0.0 0.00 0.18 0.18 71 1019.3
20260906034958 73 278 0.0 0.0 0.00 0.18 0.18 72 1019.4
20260906033958 73 280 0.0 0.0 0.00 0.18 0.18 72 1019.4
20260906032958 73 290 0.0 0.0 0.00 0.18 0.18 73 1019.5
20260906031957 73 283 0.0 0.0 0.00 0.18 0.18 73 1019.8
20260906030959 73 284 0.0 0.0 0.00 0.18 0.18 70 1019.9
20260906025958 73 284 0.0 0.0 0.00 0.18 0.18 70 1019.7
20260906022959 73 284 0.0 0.0 0.00 0.18 0.18 75 1019.5
20260906021957 73 283 0.0 0.0 0.00 0.18 0.18 74 1019.2
20260906020958 73 283 0.0 0.0 0.00 0.18 0.18 73 1019.3
20260906012958 72 283 0.0 0.0 0.00 0.18 0.18 76 1018.9
20260906011957 73 284 0.0 0.0 0.00 0.18 0.18 77 1018.7
20260906010958 73 297 0.0 1.0 0.00 0.18 0.18 76 1018.7
20260906010001 73 297 0.0 2.0 0.00 0.18 0.18 76 1018.7
20260906004959 73 277 0.0 2.0 0.00 0.18 0.18 77 1018.7
20260906003959 73 278 0.0 2.0 0.00 0.18 0.18 77 1018.6
20260906003000 73 274 0.0 3.0 0.00 0.18 0.18 76 1018.3
20260906001959 73 285 0.0 2.0 0.00 0.18 0.18 76 1018.3
20260906000959 73 285 0.0 3.0 0.00 0.18 0.18 75 1018.3
20260906000000 73 262 0.0 3.0 0.00 0.18 0.18 74 1018.2
20260905234957 73 281 0.0 2.0 0.00 0.18 0.18 74 1018.1
20260905233958 73 292 0.0 4.0 0.00 0.18 0.18 74 1017.8
20260905231957 74 290 0.0 3.0 0.00 0.18 0.18 74 1017.9
20260905230957 74 288 0.0 2.0 0.00 0.18 0.18 74 1017.8
20260905225959 74 283 0.0 3.0 0.00 0.18 0.18 74 1017.9
20260905223957 74 267 0.0 2.0 0.00 0.18 0.18 74 1018.0
20260905222957 74 277 0.0 2.0 0.00 0.18 0.18 74 1018.0
20260905221959 74 260 0.0 3.0 0.00 0.18 0.18 74 1018.0
20260905220957 74 276 0.0 4.0 0.00 0.18 0.18 73 1018.0
20260905220002 74 277 0.0 3.0 0.00 0.18 0.18 72 1018.0
20260905214957 74 293 1.0 3.0 0.00 0.18 0.18 74 1018.1
20260905211958 73 277 0.0 0.0 0.00 0.18 0.18 74 1018.1
20260905210957 73 266 0.0 0.0 0.00 0.18 0.18 73 1018.2
20260905210000 73 270 0.0 0.0 0.00 0.18 0.18 74 1018.3
20260905203957 72 281 0.0 0.0 0.00 0.18 0.18 74 1018.5
20260905203000 71 271 0.0 0.0 0.00 0.18 0.18 78 1018.7
20260905201957 70 281 0.0 0.0 0.00 0.18 0.18 80 1018.8
20260905200958 69 287 0.0 0.0 0.00 0.18 0.18 80 1018.7
20260905200001 68 301 0.0 0.0 0.00 0.18 0.18 80 1018.9
20260905194959 68 277 0.0 0.0 0.00 0.18 0.18 82 1018.9
20260905193959 67 283 0.0 0.0 0.00 0.18 0.18 84 1018.7
20260905193000 67 267 0.0 0.0 0.00 0.18 0.18 85 1018.7
20260905191958 67 359 0.0 0.0 0.01 0.18 0.18 88 1018.7
20260905190958 67 265 0.0 0.0 0.01 0.18 0.18 86 1018.7
20260905190001 67 271 0.0 0.0 0.03 0.18 0.18 88 1018.7
20260905184958 66 263 0.0 0.0 0.17 0.18 0.18 90 1019.0
20260905183959 67 240 0.0 0.0 0.18 0.18 0.18 88 1019.4
20260905182958 68 257 0.0 0.0 0.18 0.18 0.18 88 1019.4
20260905181958 69 251 0.0 0.0 0.17 0.17 0.17 87 1019.8
20260905180958 71 252 0.0 0.0 0.17 0.17 0.17 84 1020.5
20260905180001 74 236 0.0 0.0 0.14 0.14 0.14 77 1020.7
20260905174959 79 233 0.0 0.0 0.01 0.01 0.01 75 1020.1
20260905173957 80 65 0.0 0.0 0.00 0.00 0.00 76 1020.1
20260905172958 78 81 0.0 0.0 0.00 0.00 0.00 76 1020.2
20260905171957 79 70 0.0 0.0 0.00 0.00 0.00 75 1020.6
20260905170957 80 75 0.0 0.0 0.00 0.00 0.00 72 1020.6
20260905170000 83 16 0.0 0.0 0.00 0.00 0.00 67 1020.4
20260905164958 84 44 0.0 0.0 0.00 0.00 0.00 70 1020.4
20260905163958 83 73 0.0 0.0 0.00 0.00 0.00 68 1020.6
20260905162958 84 43 0.0 0.0 0.00 0.00 0.00 70 1020.7
20260905161958 83 71 0.0 0.0 0.00 0.00 0.00 68 1021.0
20260905160957 85 225 0.0 0.0 0.00 0.00 0.00 63 1021.0
20260905155958 86 229 0.0 0.0 0.00 0.00 0.00 61 1021.1
20260905154957 87 229 0.0 0.0 0.00 0.00 0.00 60 1021.0
20260905152959 86 215 0.0 0.0 0.00 0.00 0.00 59 1020.9
20260905151957 85 259 0.0 0.0 0.00 0.00 0.00 60 1020.8
20260905150957 85 145 0.0 0.0 0.00 0.00 0.00 62 1020.7
20260905145957 85 262 0.0 0.0 0.00 0.00 0.00 58 1020.6
20260905144956 85 239 0.0 0.0 0.00 0.00 0.00 59 1020.6
20260905143956 85 75 0.0 0.0 0.00 0.00 0.00 59 1020.8
20260905141959 84 246 0.0 0.0 0.00 0.00 0.00 60 1020.8
20260905140000 84 246 0.0 0.0 0.00 0.00 0.00 60 1020.7
20260905134958 83 193 0.0 0.0 0.00 0.00 0.00 62 1020.7
20260905132958 81 94 0.0 0.0 0.00 0.00 0.00 66 1020.8
20260905130959 81 235 0.0 0.0 0.00 0.00 0.00 64 1021.1
20260905130000 81 214 0.0 0.0 0.00 0.00 0.00 64 1021.1
20260905124957 81 214 0.0 0.0 0.00 0.00 0.00 65 1021.1
20260905123958 80 225 0.0 0.0 0.00 0.00 0.00 66 1021.1
20260905120957 78 191 0.0 0.0 0.00 0.00 0.00 68 1020.6
20260905115958 77 323 0.0 0.0 0.00 0.00 0.00 70 1020.6
20260905114958 76 297 0.0 0.0 0.00 0.00 0.00 70 1020.5
20260905104957 74 298 0.0 0.0 0.00 0.00 0.00 72 1019.9
20260905103959 74 311 0.0 0.0 0.00 0.00 0.00 72 1019.7
20260905102959 74 312 0.0 0.0 0.00 0.00 0.00 72 1019.7
20260905101956 74 312 0.0 0.0 0.00 0.00 0.00 73 1019.5
20260905100958 74 307 0.0 0.0 0.00 0.00 0.00 73 1019.4
20260905100000 74 297 0.0 0.0 0.00 0.00 0.00 73 1019.4
20260905094957 74 283 0.0 0.0 0.00 0.00 0.00 73 1019.5
20260905093958 74 274 0.0 0.0 0.00 0.00 0.00 74 1019.6
20260905092958 74 277 0.0 0.0 0.00 0.00 0.00 74 1019.7
20260905090957 74 276 0.0 0.0 0.00 0.00 0.00 75 1019.7
20260905090000 74 276 0.0 0.0 0.00 0.00 0.00 74 1019.7
20260905084958 75 257 0.0 0.0 0.00 0.00 0.00 73 1019.9
20260905083957 75 290 0.0 0.0 0.00 0.00 0.00 72 1020.0
20260905081957 75 290 0.0 0.0 0.00 0.00 0.00 72 1020.2
20260905080957 75 290 0.0 0.0 0.00 0.00 0.00 71 1020.4
20260905080000 76 290 0.0 0.0 0.00 0.00 0.00 70 1020.4
20260905074958 76 290 0.0 0.0 0.00 0.00 0.00 69 1020.5
20260905073957 76 290 0.0 0.0 0.00 0.00 0.00 69 1020.5
20260905072958 76 290 0.0 0.0 0.00 0.00 0.00 70 1020.6
20260905071957 75 290 0.0 0.0 0.00 0.00 0.00 70 1020.7
20260905070957 75 290 0.0 0.0 0.00 0.00 0.00 71 1020.8
20260905065958 75 290 0.0 0.0 0.00 0.00 0.00 72 1020.9
20260905064959 75 290 0.0 0.0 0.00 0.00 0.00 71 1020.9
20260905062957 75 290 0.0 0.0 0.00 0.00 0.00 72 1021.0
20260905061957 75 290 0.0 0.0 0.00 0.00 0.00 72 1021.1
20260905060958 75 298 0.0 0.0 0.00 0.00 0.00 72 1021.2
20260905055958 75 300 0.0 0.0 0.00 0.00 0.00 73 1021.3
20260905054958 76 300 0.0 0.0 0.00 0.00 0.00 73 1021.5
20260905052959 75 286 0.0 0.0 0.00 0.00 0.00 74 1021.6
20260905051957 75 277 0.0 0.0 0.00 0.00 0.00 75 1021.6
20260905050957 75 283 0.0 0.0 0.00 0.00 0.00 75 1021.6
20260905045957 75 233 0.0 0.0 0.00 0.00 0.00 75 1021.6
20260905044957 75 269 0.0 0.0 0.00 0.00 0.00 75 1021.6
20260905043958 75 285 0.0 0.0 0.00 0.00 0.00 76 1021.6
20260905041957 75 270 0.0 0.0 0.00 0.00 0.00 75 1021.6
20260905040957 75 270 0.0 0.0 0.00 0.00 0.00 75 1021.7